| time (UTC) | temp F | wind direction | speed MPH | gust MPH | rain 1hr in | rain 24hr in | rain mn in | humidity % | barometer mb |
| 20260906044008 | 70 | 44 | 0.0 | 4.0 | 0.00 | 0.00 | 0.00 | 72 | 1019.8 |
| 20260906043546 | 71 | 237 | 0.0 | 4.0 | 0.00 | 0.00 | 0.00 | 71 | 1019.8 |
| 20260906043024 | 71 | 240 | 2.0 | 4.0 | 0.00 | 0.00 | 0.00 | 70 | 1019.6 |
| 20260906042550 | 71 | 254 | 2.0 | 4.0 | 0.00 | 0.00 | 0.00 | 71 | 1019.5 |
| 20260906042023 | 70 | 207 | 0.0 | 8.0 | 0.00 | 0.00 | 0.00 | 73 | 1019.5 |
| 20260906041556 | 70 | 224 | 3.0 | 8.0 | 0.00 | 0.00 | 0.00 | 73 | 1019.5 |
| 20260906041032 | 70 | 255 | 5.0 | 8.0 | 0.00 | 0.00 | 0.00 | 73 | 1019.3 |
| 20260906040559 | 70 | 240 | 5.0 | 8.0 | 0.00 | 0.00 | 0.00 | 74 | 1019.3 |
| 20260906040042 | 70 | 240 | 4.0 | 7.0 | 0.00 | 0.00 | 0.00 | 74 | 1019.4 |
| 20260906035503 | 70 | 217 | 4.0 | 8.0 | 0.00 | 0.00 | 0.00 | 75 | 1019.4 |
| 20260906035044 | 70 | 228 | 5.0 | 8.0 | 0.00 | 0.00 | 0.00 | 76 | 1019.4 |
| 20260906034521 | 70 | 255 | 4.0 | 7.0 | 0.00 | 0.00 | 0.00 | 76 | 1019.3 |
| 20260906034049 | 70 | 231 | 4.0 | 7.0 | 0.00 | 0.00 | 0.00 | 77 | 1019.2 |
| 20260906033527 | 70 | 209 | 4.0 | 7.0 | 0.00 | 0.00 | 0.00 | 77 | 1019.2 |
| 20260906033106 | 70 | 288 | 4.0 | 7.0 | 0.00 | 0.00 | 0.00 | 78 | 1019.3 |
| 20260906032535 | 69 | 167 | 4.0 | 6.0 | 0.00 | 0.00 | 0.00 | 80 | 1019.2 |
| 20260906032058 | 69 | 240 | 4.0 | 6.0 | 0.00 | 0.00 | 0.00 | 81 | 1019.2 |
| 20260906031535 | 70 | 202 | 4.0 | 6.0 | 0.00 | 0.00 | 0.00 | 82 | 1019.2 |
| 20260906031002 | 70 | 276 | 3.0 | 6.0 | 0.00 | 0.00 | 0.00 | 82 | 1019.2 |
| 20260906030539 | 70 | 239 | 3.0 | 6.0 | 0.00 | 0.00 | 0.00 | 83 | 1019.1 |
| 20260906030006 | 69 | 216 | 2.0 | 5.0 | 0.00 | 0.00 | 0.00 | 84 | 1019.1 |
| 20260906025551 | 69 | 134 | 2.0 | 5.0 | 0.00 | 0.00 | 0.00 | 84 | 1019.2 |
| 20260906025030 | 69 | 155 | 0.0 | 1.0 | 0.00 | 0.00 | 0.00 | 85 | 1019.2 |
| 20260906024616 | 69 | 155 | 0.0 | 2.0 | 0.00 | 0.00 | 0.00 | 85 | 1019.2 |
| 20260906024023 | 70 | 65 | 0.0 | 2.0 | 0.00 | 0.00 | 0.00 | 85 | 1019.2 |
| 20260906023555 | 70 | 122 | 0.0 | 0.0 | 0.00 | 0.00 | 0.00 | 85 | 1019.1 |
| 20260906023031 | 70 | 108 | 0.0 | 1.0 | 0.00 | 0.00 | 0.00 | 86 | 1019.2 |
| 20260906022600 | 70 | 233 | 0.0 | 2.0 | 0.00 | 0.00 | 0.00 | 86 | 1019.2 |
| 20260906022041 | 70 | 248 | 0.0 | 7.0 | 0.00 | 0.00 | 0.00 | 86 | 1019.0 |
| 20260906021504 | 69 | 199 | 2.0 | 7.0 | 0.00 | 0.00 | 0.00 | 86 | 1019.1 |
| 20260906021049 | 69 | 255 | 4.0 | 7.0 | 0.00 | 0.00 | 0.00 | 86 | 1019.0 |
| 20260906020523 | 69 | 213 | 5.0 | 7.0 | 0.00 | 0.00 | 0.00 | 87 | 1018.9 |
| 20260906020054 | 70 | 212 | 5.0 | 8.0 | 0.00 | 0.00 | 0.00 | 86 | 1018.9 |
| 20260906015528 | 70 | 212 | 5.0 | 8.0 | 0.00 | 0.00 | 0.00 | 87 | 1018.9 |
| 20260906015053 | 70 | 155 | 4.0 | 7.0 | 0.00 | 0.00 | 0.00 | 87 | 1018.8 |
| 20260906014543 | 70 | 242 | 4.0 | 7.0 | 0.00 | 0.00 | 0.00 | 87 | 1018.9 |
| 20260906014100 | 70 | 252 | 4.0 | 7.0 | 0.00 | 0.00 | 0.00 | 87 | 1019.0 |
| 20260906013536 | 70 | 212 | 4.0 | 9.0 | 0.00 | 0.00 | 0.00 | 87 | 1019.0 |
| 20260906013005 | 71 | 241 | 5.0 | 9.0 | 0.00 | 0.00 | 0.00 | 86 | 1019.0 |
| 20260906012545 | 71 | 231 | 5.0 | 8.0 | 0.00 | 0.00 | 0.00 | 86 | 1019.0 |
| 20260906012024 | 71 | 224 | 4.0 | 7.0 | 0.00 | 0.00 | 0.00 | 86 | 1019.0 |
| 20260906011549 | 71 | 212 | 4.0 | 7.0 | 0.00 | 0.00 | 0.00 | 86 | 1019.0 |
| 20260906011021 | 71 | 160 | 3.0 | 7.0 | 0.00 | 0.00 | 0.00 | 86 | 1019.1 |
| 20260906010554 | 71 | 226 | 3.0 | 7.0 | 0.00 | 0.00 | 0.00 | 86 | 1019.0 |
| 20260906010031 | 71 | 233 | 4.0 | 7.0 | 0.00 | 0.00 | 0.00 | 86 | 1019.1 |
| 20260906005559 | 71 | 226 | 4.0 | 7.0 | 0.00 | 0.00 | 0.00 | 86 | 1019.0 |
| 20260906005041 | 71 | 32 | 3.0 | 7.0 | 0.00 | 0.00 | 0.00 | 86 | 1019.1 |
| 20260906004607 | 71 | 229 | 4.0 | 7.0 | 0.00 | 0.00 | 0.00 | 86 | 1019.1 |
| 20260906004038 | 71 | 186 | 5.0 | 8.0 | 0.00 | 0.00 | 0.00 | 85 | 1019.0 |
| 20260906003506 | 72 | 210 | 4.0 | 7.0 | 0.00 | 0.00 | 0.00 | 84 | 1019.0 |
| 20260906003050 | 72 | 224 | 2.0 | 7.0 | 0.00 | 0.00 | 0.00 | 84 | 1019.0 |
| 20260906002525 | 72 | 231 | 4.0 | 6.0 | 0.00 | 0.00 | 0.00 | 85 | 1019.1 |
| 20260906002052 | 72 | 247 | 3.0 | 5.0 | 0.00 | 0.00 | 0.00 | 85 | 1019.0 |
| 20260906001531 | 72 | 188 | 3.0 | 5.0 | 0.00 | 0.00 | 0.00 | 85 | 1019.1 |
| 20260906001101 | 72 | 231 | 3.0 | 5.0 | 0.00 | 0.00 | 0.00 | 86 | 1019.0 |
| 20260906000538 | 72 | 263 | 2.0 | 6.0 | 0.00 | 0.00 | 0.00 | 86 | 1019.1 |
| 20260906000120 | 72 | 230 | 3.0 | 6.0 | 0.00 | 0.00 | 0.00 | 85 | 1019.1 |
| 20260905235546 | 72 | 198 | 2.0 | 4.0 | 0.00 | 0.00 | 0.00 | 86 | 1019.1 |
| 20260905235025 | 72 | 243 | 2.0 | 4.0 | 0.00 | 0.00 | 0.00 | 85 | 1019.2 |
| 20260905234557 | 73 | 245 | 2.0 | 4.0 | 0.00 | 0.00 | 0.00 | 85 | 1019.0 |
| 20260905234024 | 73 | 229 | 1.0 | 4.0 | 0.00 | 0.00 | 0.00 | 86 | 1019.0 |
| 20260905233554 | 72 | 228 | 1.0 | 5.0 | 0.00 | 0.00 | 0.00 | 86 | 1019.0 |
| 20260905233034 | 72 | 231 | 2.0 | 5.0 | 0.00 | 0.00 | 0.00 | 87 | 1019.0 |
| 20260905232604 | 71 | 245 | 2.0 | 6.0 | 0.00 | 0.00 | 0.00 | 86 | 1019.0 |
| 20260905232038 | 71 | 258 | 3.0 | 6.0 | 0.00 | 0.00 | 0.00 | 86 | 1019.0 |
| 20260905231505 | 71 | 215 | 3.0 | 6.0 | 0.00 | 0.00 | 0.00 | 86 | 1019.0 |
| 20260905231042 | 72 | 252 | 3.0 | 5.0 | 0.00 | 0.00 | 0.00 | 85 | 1019.1 |
| 20260905230524 | 72 | 231 | 2.0 | 6.0 | 0.00 | 0.00 | 0.00 | 87 | 1019.1 |
| 20260905230115 | 71 | 238 | 2.0 | 7.0 | 0.00 | 0.00 | 0.00 | 87 | 1019.1 |
| 20260905225522 | 71 | 245 | 4.0 | 7.0 | 0.00 | 0.00 | 0.00 | 86 | 1019.0 |
| 20260905225058 | 71 | 255 | 4.0 | 7.0 | 0.00 | 0.00 | 0.00 | 86 | 1019.1 |
| 20260905224532 | 71 | 237 | 4.0 | 7.0 | 0.00 | 0.00 | 0.00 | 87 | 1019.1 |
| 20260905224105 | 71 | 252 | 4.0 | 7.0 | 0.00 | 0.00 | 0.00 | 87 | 1019.0 |
| 20260905223540 | 72 | 226 | 3.0 | 7.0 | 0.00 | 0.00 | 0.00 | 87 | 1019.1 |
| 20260905223008 | 72 | 219 | 4.0 | 7.0 | 0.00 | 0.00 | 0.00 | 87 | 1019.1 |
| 20260905222546 | 72 | 254 | 3.0 | 6.0 | 0.00 | 0.00 | 0.00 | 87 | 1019.1 |
| 20260905222010 | 72 | 212 | 1.0 | 7.0 | 0.00 | 0.00 | 0.00 | 87 | 1019.1 |
| 20260905221556 | 72 | 237 | 2.0 | 7.0 | 0.00 | 0.00 | 0.00 | 87 | 1019.1 |
| 20260905221027 | 72 | 236 | 5.0 | 7.0 | 0.00 | 0.00 | 0.00 | 87 | 1019.1 |
| 20260905220604 | 72 | 219 | 3.0 | 6.0 | 0.00 | 0.00 | 0.00 | 87 | 1019.1 |
| 20260905220038 | 72 | 140 | 3.0 | 5.0 | 0.00 | 0.00 | 0.00 | 87 | 1019.1 |
| 20260905215600 | 73 | 218 | 2.0 | 4.0 | 0.00 | 0.00 | 0.00 | 87 | 1019.0 |
| 20260905215031 | 73 | 129 | 1.0 | 5.0 | 0.00 | 0.00 | 0.00 | 88 | 1019.0 |
| 20260905214501 | 73 | 233 | 2.0 | 6.0 | 0.00 | 0.00 | 0.00 | 88 | 1019.1 |
| 20260905214039 | 73 | 219 | 3.0 | 6.0 | 0.00 | 0.00 | 0.00 | 87 | 1019.0 |
| 20260905213508 | 73 | 230 | 2.0 | 4.0 | 0.00 | 0.00 | 0.00 | 87 | 1019.0 |
| 20260905213047 | 73 | 256 | 2.0 | 5.0 | 0.00 | 0.00 | 0.00 | 87 | 1018.9 |
| 20260905212512 | 73 | 212 | 2.0 | 5.0 | 0.00 | 0.00 | 0.00 | 87 | 1018.8 |
| 20260905212052 | 73 | 255 | 2.0 | 5.0 | 0.00 | 0.00 | 0.00 | 86 | 1019.0 |
| 20260905211531 | 73 | 236 | 3.0 | 5.0 | 0.00 | 0.00 | 0.00 | 86 | 1019.0 |
| 20260905211059 | 72 | 180 | 2.0 | 6.0 | 0.00 | 0.00 | 0.00 | 85 | 1018.9 |
| 20260905210535 | 73 | 177 | 3.0 | 6.0 | 0.00 | 0.00 | 0.00 | 86 | 1018.8 |
| 20260905210008 | 74 | 206 | 2.0 | 4.0 | 0.00 | 0.00 | 0.00 | 87 | 1018.9 |
| 20260905205541 | 74 | 251 | 2.0 | 4.0 | 0.00 | 0.00 | 0.00 | 87 | 1018.8 |
| 20260905205019 | 74 | 112 | 0.0 | 2.0 | 0.00 | 0.00 | 0.00 | 87 | 1018.7 |
| 20260905204547 | 74 | 232 | 1.0 | 4.0 | 0.00 | 0.00 | 0.00 | 87 | 1018.7 |
| 20260905204027 | 74 | 220 | 1.0 | 4.0 | 0.00 | 0.00 | 0.00 | 87 | 1018.6 |
| 20260905203557 | 74 | 259 | 3.0 | 5.0 | 0.00 | 0.00 | 0.00 | 87 | 1018.7 |
| 20260905203028 | 75 | 211 | 2.0 | 5.0 | 0.00 | 0.00 | 0.00 | 86 | 1018.6 |
| 20260905202559 | 75 | 227 | 2.0 | 4.0 | 0.00 | 0.00 | 0.00 | 86 | 1018.6 |
| 20260905202035 | 75 | 212 | 2.0 | 5.0 | 0.00 | 0.00 | 0.00 | 86 | 1018.6 |
| 20260905201609 | 75 | 198 | 3.0 | 5.0 | 0.00 | 0.00 | 0.00 | 86 | 1018.6 |
| 20260905201043 | 75 | 236 | 3.0 | 5.0 | 0.00 | 0.00 | 0.00 | 85 | 1018.6 |
| 20260905200523 | 76 | 217 | 3.0 | 5.0 | 0.00 | 0.00 | 0.00 | 85 | 1018.5 |
| 20260905200103 | 77 | 215 | 3.0 | 5.0 | 0.00 | 0.00 | 0.00 | 84 | 1018.5 |
| 20260905195528 | 78 | 200 | 1.0 | 3.0 | 0.00 | 0.00 | 0.00 | 83 | 1018.5 |
| 20260905195101 | 78 | 235 | 1.0 | 3.0 | 0.00 | 0.00 | 0.00 | 83 | 1018.6 |
| 20260905194537 | 78 | 250 | 1.0 | 3.0 | 0.00 | 0.00 | 0.00 | 83 | 1018.5 |
| 20260905194004 | 78 | 260 | 1.0 | 3.0 | 0.00 | 0.00 | 0.00 | 83 | 1018.5 |
| 20260905193543 | 78 | 232 | 2.0 | 3.0 | 0.00 | 0.00 | 0.00 | 82 | 1018.4 |
| 20260905193023 | 78 | 236 | 1.0 | 3.0 | 0.00 | 0.00 | 0.00 | 82 | 1018.5 |
| 20260905192551 | 77 | 257 | 1.0 | 4.0 | 0.00 | 0.00 | 0.00 | 82 | 1018.6 |
| 20260905192032 | 77 | 204 | 1.0 | 4.0 | 0.00 | 0.00 | 0.00 | 82 | 1018.4 |
| 20260905191601 | 77 | 240 | 2.0 | 5.0 | 0.00 | 0.00 | 0.00 | 83 | 1018.5 |
| 20260905191040 | 77 | 179 | 3.0 | 4.0 | 0.00 | 0.00 | 0.00 | 83 | 1018.6 |
| 20260905190501 | 77 | 217 | 0.0 | 1.0 | 0.00 | 0.00 | 0.00 | 83 | 1018.5 |
| 20260905190041 | 78 | 108 | 0.0 | 1.0 | 0.00 | 0.00 | 0.00 | 83 | 1018.4 |
| 20260905185507 | 78 | 108 | 0.0 | 0.0 | 0.00 | 0.00 | 0.00 | 83 | 1018.5 |
| 20260905185052 | 79 | 108 | 0.0 | 0.0 | 0.00 | 0.00 | 0.00 | 82 | 1018.5 |
| 20260905184532 | 79 | 108 | 0.0 | 0.0 | 0.00 | 0.00 | 0.00 | 82 | 1018.5 |
| 20260905184103 | 79 | 109 | 0.0 | 0.0 | 0.00 | 0.00 | 0.00 | 81 | 1018.5 |
| 20260905183540 | 80 | 108 | 0.0 | 0.0 | 0.00 | 0.00 | 0.00 | 81 | 1018.5 |
| 20260905183019 | 80 | 108 | 0.0 | 0.0 | 0.00 | 0.00 | 0.00 | 80 | 1018.5 |
| 20260905182548 | 80 | 108 | 0.0 | 0.0 | 0.00 | 0.00 | 0.00 | 80 | 1018.4 |
| 20260905182024 | 80 | 108 | 0.0 | 0.0 | 0.00 | 0.00 | 0.00 | 80 | 1018.3 |
| 20260905181555 | 81 | 108 | 0.0 | 0.0 | 0.00 | 0.00 | 0.00 | 80 | 1018.3 |
| 20260905181033 | 81 | 108 | 0.0 | 0.0 | 0.00 | 0.00 | 0.00 | 79 | 1018.2 |
| 20260905180502 | 81 | 108 | 0.0 | 0.0 | 0.00 | 0.00 | 0.00 | 79 | 1018.2 |
| 20260905180045 | 81 | 108 | 0.0 | 0.0 | 0.00 | 0.00 | 0.00 | 78 | 1018.1 |
| 20260905175522 | 81 | 108 | 0.0 | 0.0 | 0.00 | 0.00 | 0.00 | 77 | 1017.9 |
| 20260905175050 | 81 | 108 | 0.0 | 0.0 | 0.00 | 0.00 | 0.00 | 77 | 1017.8 |
| 20260905174533 | 82 | 108 | 0.0 | 1.0 | 0.00 | 0.00 | 0.00 | 76 | 1017.7 |
| 20260905174104 | 82 | 108 | 0.0 | 1.0 | 0.00 | 0.00 | 0.00 | 76 | 1017.7 |
| 20260905173538 | 83 | 108 | 0.0 | 1.0 | 0.00 | 0.00 | 0.00 | 75 | 1017.7 |
| 20260905173006 | 84 | 108 | 0.0 | 1.0 | 0.00 | 0.00 | 0.00 | 73 | 1017.6 |
| 20260905172546 | 85 | 108 | 0.0 | 1.0 | 0.00 | 0.00 | 0.00 | 72 | 1017.6 |
| 20260905172010 | 86 | 108 | 0.0 | 1.0 | 0.00 | 0.00 | 0.00 | 70 | 1017.6 |
| 20260905171554 | 86 | 108 | 0.0 | 1.0 | 0.00 | 0.00 | 0.00 | 70 | 1017.8 |
| 20260905171023 | 87 | 108 | 0.0 | 1.0 | 0.00 | 0.00 | 0.00 | 68 | 1017.6 |
| 20260905170557 | 88 | 108 | 0.0 | 2.0 | 0.00 | 0.00 | 0.00 | 67 | 1017.7 |
| 20260905170031 | 90 | 108 | 1.0 | 2.0 | 0.00 | 0.00 | 0.00 | 65 | 1017.6 |
| 20260905165602 | 90 | 108 | 0.0 | 1.0 | 0.00 | 0.00 | 0.00 | 64 | 1017.6 |
| 20260905165036 | 91 | 108 | 0.0 | 0.0 | 0.00 | 0.00 | 0.00 | 63 | 1017.7 |
| 20260905164504 | 91 | 108 | 0.0 | 1.0 | 0.00 | 0.00 | 0.00 | 62 | 1017.6 |
| 20260905164043 | 91 | 108 | 0.0 | 1.0 | 0.00 | 0.00 | 0.00 | 61 | 1017.6 |
| 20260905163523 | 92 | 39 | 0.0 | 1.0 | 0.00 | 0.00 | 0.00 | 62 | 1017.6 |
| 20260905163047 | 92 | 39 | 0.0 | 2.0 | 0.00 | 0.00 | 0.00 | 61 | 1017.6 |
| 20260905162523 | 92 | 40 | 0.0 | 3.0 | 0.00 | 0.00 | 0.00 | 61 | 1017.7 |
| 20260905162051 | 92 | 38 | 0.0 | 1.0 | 0.00 | 0.00 | 0.00 | 62 | 1017.6 |
| 20260905161525 | 92 | 38 | 0.0 | 2.0 | 0.00 | 0.00 | 0.00 | 61 | 1017.4 |
| 20260905161055 | 93 | 37 | 0.0 | 3.0 | 0.00 | 0.00 | 0.00 | 61 | 1017.4 |
| 20260905160533 | 92 | 36 | 0.0 | 3.0 | 0.00 | 0.00 | 0.00 | 60 | 1017.5 |
| 20260905160059 | 93 | 36 | 0.0 | 2.0 | 0.00 | 0.00 | 0.00 | 60 | 1017.4 |
| 20260905155536 | 93 | 35 | 0.0 | 3.0 | 0.00 | 0.00 | 0.00 | 60 | 1017.3 |
| 20260905155103 | 92 | 36 | 0.0 | 4.0 | 0.00 | 0.00 | 0.00 | 60 | 1017.4 |
| 20260905154552 | 92 | 38 | 1.0 | 4.0 | 0.00 | 0.00 | 0.00 | 60 | 1017.4 |
| 20260905154005 | 93 | 38 | 0.0 | 3.0 | 0.00 | 0.00 | 0.00 | 60 | 1017.6 |
| 20260905153550 | 93 | 38 | 1.0 | 3.0 | 0.00 | 0.00 | 0.00 | 60 | 1017.3 |
| 20260905153025 | 93 | 37 | 0.0 | 3.0 | 0.00 | 0.00 | 0.00 | 61 | 1017.2 |
| 20260905152553 | 93 | 36 | 0.0 | 5.0 | 0.00 | 0.00 | 0.00 | 61 | 1017.3 |
| 20260905152033 | 93 | 37 | 2.0 | 5.0 | 0.00 | 0.00 | 0.00 | 61 | 1017.3 |
| 20260905151559 | 93 | 58 | 1.0 | 4.0 | 0.00 | 0.00 | 0.00 | 61 | 1017.4 |
| 20260905151039 | 94 | 75 | 1.0 | 3.0 | 0.00 | 0.00 | 0.00 | 62 | 1017.3 |
| 20260905150505 | 93 | 75 | 0.0 | 3.0 | 0.00 | 0.00 | 0.00 | 64 | 1017.2 |
| 20260905150041 | 93 | 76 | 0.0 | 4.0 | 0.00 | 0.00 | 0.00 | 64 | 1017.3 |
| 20260905145527 | 93 | 62 | 1.0 | 5.0 | 0.00 | 0.00 | 0.00 | 64 | 1017.3 |
| 20260905145049 | 93 | 63 | 1.0 | 5.0 | 0.00 | 0.00 | 0.00 | 66 | 1017.4 |
| 20260905144529 | 93 | 44 | 3.0 | 5.0 | 0.00 | 0.00 | 0.00 | 65 | 1017.3 |
| 20260905144059 | 93 | 50 | 2.0 | 6.0 | 0.00 | 0.00 | 0.00 | 64 | 1017.2 |
| 20260905143537 | 94 | 65 | 1.0 | 6.0 | 0.00 | 0.00 | 0.00 | 65 | 1017.2 |
| 20260905143002 | 94 | 41 | 0.0 | 5.0 | 0.00 | 0.00 | 0.00 | 65 | 1017.2 |
| 20260905142542 | 94 | 42 | 1.0 | 5.0 | 0.00 | 0.00 | 0.00 | 64 | 1017.2 |
| 20260905142009 | 94 | 65 | 0.0 | 4.0 | 0.00 | 0.00 | 0.00 | 64 | 1017.2 |
| 20260905141547 | 94 | 73 | 0.0 | 3.0 | 0.00 | 0.00 | 0.00 | 63 | 1017.0 |
| 20260905141009 | 94 | 73 | 0.0 | 2.0 | 0.00 | 0.00 | 0.00 | 63 | 1017.1 |
| 20260905140543 | 94 | 100 | 0.0 | 2.0 | 0.00 | 0.00 | 0.00 | 64 | 1017.2 |
| 20260905140005 | 94 | 99 | 0.0 | 2.0 | 0.00 | 0.00 | 0.00 | 63 | 1017.2 |
| 20260905135551 | 94 | 108 | 0.0 | 2.0 | 0.00 | 0.00 | 0.00 | 62 | 1017.2 |
| 20260905135013 | 93 | 99 | 0.0 | 3.0 | 0.00 | 0.00 | 0.00 | 62 | 1017.3 |
| 20260905134555 | 93 | 108 | 1.0 | 4.0 | 0.00 | 0.00 | 0.00 | 63 | 1017.2 |
| 20260905134028 | 93 | 108 | 1.0 | 4.0 | 0.00 | 0.00 | 0.00 | 63 | 1017.2 |
| 20260905133600 | 93 | 108 | 1.0 | 4.0 | 0.00 | 0.00 | 0.00 | 62 | 1017.1 |
| 20260905133025 | 93 | 65 | 1.0 | 5.0 | 0.00 | 0.00 | 0.00 | 62 | 1017.1 |
| 20260905132603 | 92 | 99 | 1.0 | 9.0 | 0.00 | 0.00 | 0.00 | 62 | 1017.1 |
| 20260905132040 | 92 | 132 | 2.0 | 9.0 | 0.00 | 0.00 | 0.00 | 61 | 1017.0 |
| 20260905131503 | 92 | 110 | 2.0 | 9.0 | 0.00 | 0.00 | 0.00 | 62 | 1017.0 |
| 20260905131043 | 92 | 99 | 2.0 | 9.0 | 0.00 | 0.00 | 0.00 | 60 | 1017.0 |
| 20260905130527 | 92 | 99 | 3.0 | 9.0 | 0.00 | 0.00 | 0.00 | 60 | 1017.1 |
| 20260905130050 | 92 | 108 | 1.0 | 5.0 | 0.00 | 0.00 | 0.00 | 61 | 1017.1 |
| 20260905125529 | 93 | 102 | 1.0 | 5.0 | 0.00 | 0.00 | 0.00 | 61 | 1017.2 |
| 20260905125057 | 93 | 108 | 0.0 | 5.0 | 0.00 | 0.00 | 0.00 | 62 | 1017.2 |
| 20260905124537 | 93 | 99 | 1.0 | 5.0 | 0.00 | 0.00 | 0.00 | 62 | 1017.2 |
| 20260905124004 | 92 | 98 | 1.0 | 5.0 | 0.00 | 0.00 | 0.00 | 62 | 1017.2 |
| 20260905123543 | 92 | 99 | 1.0 | 6.0 | 0.00 | 0.00 | 0.00 | 61 | 1017.3 |
| 20260905123018 | 92 | 98 | 1.0 | 7.0 | 0.00 | 0.00 | 0.00 | 60 | 1017.3 |
| 20260905122549 | 92 | 105 | 2.0 | 5.0 | 0.00 | 0.00 | 0.00 | 62 | 1017.4 |
| 20260905122025 | 92 | 99 | 1.0 | 10.0 | 0.00 | 0.00 | 0.00 | 64 | 1017.4 |
| 20260905121601 | 92 | 108 | 2.0 | 10.0 | 0.00 | 0.00 | 0.00 | 63 | 1017.5 |
| 20260905121029 | 91 | 116 | 1.0 | 9.0 | 0.00 | 0.00 | 0.00 | 62 | 1017.4 |
| 20260905120601 | 91 | 98 | 1.0 | 10.0 | 0.00 | 0.00 | 0.00 | 63 | 1017.5 |
| 20260905120034 | 92 | 106 | 2.0 | 11.0 | 0.00 | 0.00 | 0.00 | 63 | 1017.4 |
| 20260905115501 | 92 | 321 | 2.0 | 7.0 | 0.00 | 0.00 | 0.00 | 63 | 1017.7 |
| 20260905115043 | 92 | 89 | 1.0 | 9.0 | 0.00 | 0.00 | 0.00 | 64 | 1017.6 |
| 20260905114502 | 92 | 108 | 1.0 | 5.0 | 0.00 | 0.00 | 0.00 | 64 | 1017.6 |
| 20260905114041 | 92 | 114 | 1.0 | 6.0 | 0.00 | 0.00 | 0.00 | 64 | 1017.7 |
| 20260905113508 | 92 | 108 | 1.0 | 5.0 | 0.00 | 0.00 | 0.00 | 63 | 1017.8 |
| 20260905113102 | 92 | 134 | 0.0 | 6.0 | 0.00 | 0.00 | 0.00 | 64 | 1017.7 |
| 20260905112521 | 92 | 46 | 2.0 | 6.0 | 0.00 | 0.00 | 0.00 | 63 | 1017.8 |
| 20260905112052 | 92 | 108 | 0.0 | 7.0 | 0.00 | 0.00 | 0.00 | 64 | 1017.6 |
| 20260905111522 | 92 | 16 | 1.0 | 7.0 | 0.00 | 0.00 | 0.00 | 63 | 1017.9 |
| 20260905111101 | 92 | 98 | 0.0 | 5.0 | 0.00 | 0.00 | 0.00 | 61 | 1017.8 |
| 20260905110540 | 92 | 73 | 0.0 | 5.0 | 0.00 | 0.00 | 0.00 | 60 | 1017.8 |
| 20260905110001 | 92 | 108 | 0.0 | 3.0 | 0.00 | 0.00 | 0.00 | 58 | 1017.8 |
| 20260905105541 | 92 | 98 | 1.0 | 3.0 | 0.00 | 0.00 | 0.00 | 57 | 1017.8 |
| 20260905105021 | 92 | 105 | 0.0 | 4.0 | 0.00 | 0.00 | 0.00 | 60 | 1017.9 |
| 20260905104548 | 91 | 115 | 0.0 | 4.0 | 0.00 | 0.00 | 0.00 | 58 | 1017.9 |
| 20260905104021 | 91 | 118 | 0.0 | 7.0 | 0.00 | 0.00 | 0.00 | 60 | 1017.9 |
| 20260905103553 | 91 | 108 | 1.0 | 7.0 | 0.00 | 0.00 | 0.00 | 58 | 1017.9 |
| 20260905103033 | 90 | 103 | 1.0 | 5.0 | 0.00 | 0.00 | 0.00 | 62 | 1018.1 |
| 20260905102557 | 90 | 108 | 2.0 | 5.0 | 0.00 | 0.00 | 0.00 | 60 | 1018.0 |
| 20260905102033 | 90 | 105 | 0.0 | 5.0 | 0.00 | 0.00 | 0.00 | 60 | 1017.9 |
| 20260905101501 | 90 | 108 | 0.0 | 3.0 | 0.00 | 0.00 | 0.00 | 59 | 1018.1 |
| 20260905101039 | 90 | 108 | 0.0 | 6.0 | 0.00 | 0.00 | 0.00 | 61 | 1018.2 |
| 20260905100509 | 90 | 109 | 1.0 | 7.0 | 0.00 | 0.00 | 0.00 | 63 | 1018.2 |
| 20260905100052 | 90 | 134 | 2.0 | 6.0 | 0.00 | 0.00 | 0.00 | 63 | 1018.2 |
| 20260905095525 | 90 | 136 | 1.0 | 5.0 | 0.00 | 0.00 | 0.00 | 63 | 1018.2 |
| 20260905095055 | 91 | 108 | 0.0 | 4.0 | 0.00 | 0.00 | 0.00 | 63 | 1018.3 |
| 20260905094527 | 90 | 119 | 0.0 | 5.0 | 0.00 | 0.00 | 0.00 | 64 | 1018.2 |
| 20260905094054 | 90 | 131 | 0.0 | 3.0 | 0.00 | 0.00 | 0.00 | 62 | 1018.2 |
| 20260905093531 | 90 | 134 | 0.0 | 3.0 | 0.00 | 0.00 | 0.00 | 61 | 1018.3 |
| 20260905093107 | 90 | 96 | 0.0 | 4.0 | 0.00 | 0.00 | 0.00 | 60 | 1018.1 |
| 20260905092536 | 90 | 108 | 0.0 | 5.0 | 0.00 | 0.00 | 0.00 | 60 | 1018.2 |
| 20260905092103 | 89 | 104 | 1.0 | 5.0 | 0.00 | 0.00 | 0.00 | 56 | 1018.1 |
| 20260905091541 | 90 | 101 | 0.0 | 2.0 | 0.00 | 0.00 | 0.00 | 57 | 1018.1 |
| 20260905091020 | 90 | 135 | 0.0 | 3.0 | 0.00 | 0.00 | 0.00 | 57 | 1018.1 |
| 20260905090549 | 89 | 108 | 0.0 | 6.0 | 0.00 | 0.00 | 0.00 | 58 | 1018.1 |
| 20260905090032 | 89 | 98 | 1.0 | 6.0 | 0.00 | 0.00 | 0.00 | 60 | 1018.1 |
| 20260905085555 | 90 | 117 | 0.0 | 4.0 | 0.00 | 0.00 | 0.00 | 60 | 1018.1 |
| 20260905085029 | 90 | 108 | 1.0 | 4.0 | 0.00 | 0.00 | 0.00 | 57 | 1018.1 |
| 20260905084558 | 90 | 99 | 0.0 | 2.0 | 0.00 | 0.00 | 0.00 | 55 | 1018.1 |
| 20260905084042 | 90 | 117 | 1.0 | 2.0 | 0.00 | 0.00 | 0.00 | 54 | 1018.1 |
| 20260905083618 | 90 | 117 | 0.0 | 2.0 | 0.00 | 0.00 | 0.00 | 55 | 1017.9 |
| 20260905083042 | 89 | 116 | 0.0 | 1.0 | 0.00 | 0.00 | 0.00 | 58 | 1018.1 |
| 20260905082507 | 89 | 111 | 0.0 | 3.0 | 0.00 | 0.00 | 0.00 | 59 | 1018.1 |
| 20260905082047 | 89 | 99 | 0.0 | 3.0 | 0.00 | 0.00 | 0.00 | 59 | 1018.1 |
| 20260905081524 | 89 | 72 | 0.0 | 3.0 | 0.00 | 0.00 | 0.00 | 57 | 1018.0 |
| 20260905081050 | 89 | 115 | 0.0 | 2.0 | 0.00 | 0.00 | 0.00 | 55 | 1017.9 |
| 20260905080521 | 88 | 115 | 0.0 | 4.0 | 0.00 | 0.00 | 0.00 | 52 | 1017.9 |
| 20260905080059 | 88 | 115 | 1.0 | 4.0 | 0.00 | 0.00 | 0.00 | 54 | 1017.9 |
| 20260905075533 | 88 | 114 | 0.0 | 0.0 | 0.00 | 0.00 | 0.00 | 53 | 1018.0 |
| 20260905075002 | 88 | 113 | 0.0 | 0.0 | 0.00 | 0.00 | 0.00 | 53 | 1017.9 |
| 20260905074547 | 88 | 114 | 0.0 | 0.0 | 0.00 | 0.00 | 0.00 | 52 | 1018.1 |
| 20260905074020 | 88 | 114 | 0.0 | 0.0 | 0.00 | 0.00 | 0.00 | 50 | 1018.0 |
| 20260905073558 | 87 | 113 | 0.0 | 1.0 | 0.00 | 0.00 | 0.00 | 49 | 1017.9 |
| 20260905073021 | 87 | 61 | 0.0 | 3.0 | 0.00 | 0.00 | 0.00 | 50 | 1017.9 |
| 20260905072559 | 86 | 47 | 0.0 | 3.0 | 0.00 | 0.00 | 0.00 | 52 | 1017.8 |
| 20260905072028 | 86 | 108 | 0.0 | 0.0 | 0.00 | 0.00 | 0.00 | 53 | 1017.8 |
| 20260905071607 | 85 | 31 | 0.0 | 1.0 | 0.00 | 0.00 | 0.00 | 55 | 1017.7 |
| 20260905071035 | 84 | 30 | 0.0 | 4.0 | 0.00 | 0.00 | 0.00 | 56 | 1017.8 |
| 20260905070504 | 84 | 32 | 1.0 | 4.0 | 0.00 | 0.00 | 0.00 | 55 | 1017.9 |
| 20260905070045 | 84 | 37 | 1.0 | 4.0 | 0.00 | 0.00 | 0.00 | 53 | 1017.8 |
| 20260905065519 | 85 | 1 | 1.0 | 2.0 | 0.00 | 0.00 | 0.00 | 53 | 1017.7 |
| 20260905065050 | 85 | 16 | 0.0 | 1.0 | 0.00 | 0.00 | 0.00 | 52 | 1017.6 |
| 20260905064528 | 84 | 15 | 0.0 | 4.0 | 0.00 | 0.00 | 0.00 | 55 | 1017.5 |
| 20260905064101 | 84 | 15 | 1.0 | 4.0 | 0.00 | 0.00 | 0.00 | 55 | 1017.7 |
| 20260905063530 | 84 | 1 | 0.0 | 3.0 | 0.00 | 0.00 | 0.00 | 52 | 1017.7 |
| 20260905063107 | 84 | 154 | 1.0 | 3.0 | 0.00 | 0.00 | 0.00 | 51 | 1017.6 |
| 20260905062536 | 84 | 161 | 1.0 | 3.0 | 0.00 | 0.00 | 0.00 | 51 | 1017.6 |
| 20260905062002 | 83 | 155 | 0.0 | 3.0 | 0.00 | 0.00 | 0.00 | 52 | 1017.6 |
| 20260905061547 | 82 | 239 | 0.0 | 3.0 | 0.00 | 0.00 | 0.00 | 53 | 1017.7 |
| 20260905061052 | 81 | 187 | 0.0 | 3.0 | 0.00 | 0.00 | 0.00 | 54 | 1017.6 |
| 20260905060521 | 80 | 179 | 1.0 | 5.0 | 0.00 | 0.00 | 0.00 | 55 | 1017.6 |
| 20260905060100 | 79 | 248 | 2.0 | 5.0 | 0.00 | 0.00 | 0.00 | 56 | 1017.6 |
| 20260905055513 | 78 | 266 | 2.0 | 5.0 | 0.00 | 0.00 | 0.00 | 56 | 1017.5 |
| 20260905055054 | 78 | 155 | 1.0 | 5.0 | 0.00 | 0.00 | 0.00 | 58 | 1017.5 |
| 20260905054527 | 76 | 240 | 0.0 | 4.0 | 0.00 | 0.00 | 0.00 | 60 | 1017.5 |
| 20260905054052 | 75 | 209 | 2.0 | 5.0 | 0.00 | 0.00 | 0.00 | 61 | 1017.6 |
| 20260905053511 | 75 | 135 | 2.0 | 5.0 | 0.00 | 0.00 | 0.00 | 61 | 1017.5 |
| 20260905053053 | 74 | 255 | 3.0 | 5.0 | 0.00 | 0.00 | 0.00 | 61 | 1017.6 |
| 20260905052508 | 74 | 217 | 2.0 | 5.0 | 0.00 | 0.00 | 0.00 | 62 | 1017.6 |
| 20260905052049 | 73 | 208 | 3.0 | 5.0 | 0.00 | 0.00 | 0.00 | 63 | 1017.5 |
| 20260905051527 | 72 | 210 | 2.0 | 5.0 | 0.00 | 0.00 | 0.00 | 64 | 1017.4 |
| 20260905051050 | 72 | 209 | 2.0 | 5.0 | 0.00 | 0.00 | 0.00 | 64 | 1017.4 |
| 20260905050523 | 72 | 179 | 1.0 | 3.0 | 0.00 | 0.00 | 0.00 | 64 | 1017.4 |
| 20260905050049 | 72 | 155 | 1.0 | 5.0 | 0.00 | 0.00 | 0.00 | 64 | 1017.3 |
| 20260905045626 | 71 | 195 | 2.0 | 5.0 | 0.00 | 0.00 | 0.00 | 64 | 1017.4 |
| 20260905045059 | 71 | 248 | 3.0 | 6.0 | 0.00 | 0.00 | 0.00 | 65 | 1017.4 |
| 20260905044523 | 70 | 240 | 3.0 | 6.0 | 0.00 | 0.00 | 0.00 | 66 | 1017.3 |